Showing default

GUANGCHUAN 02, 62112

Orbit data source: Space-Track

GUANGCHUAN 02, 62112 is a payload satellite owned by Hongqing Keji (CN) in LEO that was launched on Wed, 27 Nov 2024 UTC via a ZHUQUE-2E launch vehicle from the Jiuquan Satellite Launch Center, China (JSC). Payload-class satellites include a variety of spacecraft equipped with specific instruments for various scientific and technological missions. These include communications satellites like Starlink; space stations such as the ISS; scientific satellites like the Hubble; Earth observation satellites from companies like Planet Labs, Umbra, and HawkEye 360; GPS; miniature CubeSats for education and research; and military/defense satellites.

Loading next visibility...
Identifier
62112, 2024-221B
Orbit
LEO
Country
Flag of CNCN / PRC
Related business
Manufacturer
CAST?
Mission
Operational Commercial Communications
Bus & Motor
HQ, Unknown motor
Mass
~500 kg wet, ~500 kg dry
Launch date (UTC)
2024-11-27 (1 year ago)
Launch vehicle
ZHUQUE-2E
Launch site
Jiuquan Satellite Launch Center, China (JSC)
Object type
Payload
Rocket body
Debris
Shape & HBR
Box + 2 Pan, 3.0 m
Radar Cross Section
4.560 m², Large (>1 m²)

Expand to show TLE details & history
Last TLE update: 5 hours ago

TLE from 5 hours ago
0 GUANGCHUAN 02
1 62112U 24221B   26128.18797793  .00002853  00000-0  16974-3 0  9991
2 62112  49.9444 356.7824 0006541 185.4113 174.6768 15.14344396 80111
Epoch: 2026-05-08T04:30Z
TLE epoch observation values (Epoch: 2026-05-08T04:30:41.293Z)
Latitude
0.00001°
Longitude
63.087°
Altitude
528.009 km
Speed
7.598 km/s
True Right ascension
23h 47m 07s
True Declination
0° 00' 00"
Sunlit
Object was in daylight at epoch
Visualization orbit readout
Latitude
Unknown
Longitude
Unknown
Altitude
Unknown
Speed
Unknown
Apparent Right ascension
Unknown
Apparent Declination
Unknown
Sunlit
N/A
Visualization observer readout
Local Sidereal Time
17:51:21
Azimuth
Unknown
Elevation
Unknown
Doppler factor
Unknown
Orbital elements
Apogee altitude
528.262 km
Perigee altitude
519.233 km
Semi-major axis
6,901.884 km
Eccentricity
0.00065
Inclination
49.9444°
RAAN
356.7824°
Arg. of periapsis
185.4113°
True anomaly
174.68375°
Mean anomaly
174.6768°
Eccentric anomaly
174.68027°
Mean motion
3.78522 °/min
Orbital period
95.11 mins
BSTAR
0.00016974
Loading maneuver chart data...
Computing Atmospheric mass density...
Loading historical data...
Loading historical data...
Loading historical data...
Loading historical data...
Loading historical data...
Loading historical data...
Loading historical data...
Other satellites on launch #221 in the year 2024 (2024-11-27 UTC)

Documentation

Showing up to 5 results
|